This demonstration page uses our WeatherBlox Daily Observations layout. Learn more.

Left ArrowRight Arrow

53.62937, 11.41316

Hourly Observations for June 22, 2015

Temp ( °F °C ) Dew Point ( °F °C ) Humidity (%) Winds ( mph kmh ) Pressure ( in mb ) Visibility ( mi km ) Precip ( " mm )
6:20 am 06:20 Cloudy 54 12 52 11 94 94 WSW 13 20 29.80 1009 30 48 N/A
6:50 am 06:50 Cloudy 54 12 52 11 94 94 WSW 12 19 29.77 1008 30 48 N/A
7:20 am 07:20 Mostly Cloudy 54 12 52 11 94 94 W 9 15 29.77 1008 30 48 N/A
7:50 am 07:50 Cloudy 54 12 52 11 94 94 WSW 10 17 29.80 1009 30 48 N/A
8:20 am 08:20 Cloudy 55 13 52 11 88 88 WSW 12 19 29.80 1009 30 48 N/A
8:50 am 08:50 Cloudy 55 13 52 11 88 88 WSW 10 17 29.80 1009 30 48 N/A
9:20 am 09:20 Cloudy 57 14 50 10 77 77 WSW 12 19 29.80 1009 30 48 N/A
9:50 am 09:50 Cloudy 57 14 50 10 77 77 SW 13 20 29.80 1009 30 48 N/A
10:20 am 10:20 Cloudy 57 14 50 10 77 77 WSW 12 19 29.77 1008 30 48 N/A
10:50 am 10:50 Cloudy 57 14 50 10 77 77 SW 12 19 29.77 1008 30 48 N/A
11:20 am 11:20 Cloudy 57 14 48 9 72 72 SW 10 17 29.77 1008 30 48 N/A
11:50 am 11:50 Mostly Cloudy 59 15 50 10 72 72 SW 10 17 29.77 1008 30 48 N/A
12:20 pm 12:20 Cloudy 59 15 46 8 63 63 SW 13 20 29.77 1008 30 48 N/A
12:50 pm 12:50 Cloudy with Light Rain 54 12 50 10 88 88 WSW 12 19 29.77 1008 30 48 N/A
1:20 pm 13:20 Cloudy with Light Rain 54 12 52 11 94 94 WSW 7 11 29.77 1008 30 48 N/A
1:50 pm 13:50 Mostly Cloudy with Light Rain 54 12 52 11 94 94 W 3 6 29.74 1007 4 7 N/A
2:20 pm 14:20 Mostly Cloudy 57 14 54 12 88 88 S 5 7 29.74 1007 30 48 N/A
2:50 pm 14:50 Mostly Cloudy 57 14 54 12 88 88 SSW 6 9 29.74 1007 30 48 N/A
3:20 pm 15:20 Mostly Cloudy with Light Rain 59 15 52 11 77 77 SSW 8 13 29.71 1006 30 48 N/A
3:50 pm 15:50 Mostly Cloudy 57 14 52 11 82 82 WSW 6 9 29.71 1006 30 48 N/A
4:20 pm 16:20 Mostly Cloudy 57 14 52 11 82 82 SW 5 7 29.71 1006 30 48 N/A
4:50 pm 16:50 Mostly Cloudy 57 14 54 12 88 88 WSW 3 6 29.68 1005 30 48 N/A
5:20 pm 17:20 Mostly Cloudy 59 15 52 11 77 77 S 5 7 29.68 1005 30 48 N/A
5:50 pm 17:50 Mostly Cloudy 59 15 52 11 77 77 S 5 7 29.68 1005 30 48 N/A
6:20 pm 18:20 Mostly Cloudy 59 15 52 11 77 77 S 6 9 29.68 1005 30 48 N/A
6:50 pm 18:50 Mostly Cloudy 57 14 52 11 82 82 S 8 13 29.65 1004 30 48 N/A

Powered by AerisWeather